Sallisaw, OK

2:26 AM CDT on March 26, 2017 (GMT -0500)
Sallisaw Municipal

Weather History for KJSV - November, 2011

Change the Weather History Date:

Wednesday, November 9, 2011

  Actual Average Record
Temperature  
Mean Temperature 50 °F -  
Max Temperature 59 °F 64 °F 82 °F (1980)
Min Temperature 41 °F 43 °F 16 °F (1955)
Degree Days  
Heating Degree Days 14    
Moisture  
Dew Point 35 °F    
Average Humidity 60    
Maximum Humidity 82    
Minimum Humidity 34    
Precipitation  
Precipitation 0.00 in - - ()
Sea Level Pressure  
Sea Level Pressure 30.23 in    
Wind  
Wind Speed 13 mph (NW)    
Max Wind Speed 22 mph    
Max Gust Speed 28 mph    
Visibility 10 miles    
Events      
Averages and records for this station are not official NWS values.
T = Trace of Precipitation, MM = Missing Value Source: NWS Daily Summary

Daily Weather History Graph

Daily Weather History Graph

Search for Another Location

Airport or City:

Trip Planner

Search our weather history database for the weather conditions in past years. The results will help you decide how hot, cold, wet, or windy it might be!

Date:

Astronomy

Nov. 09, 2011 Rise Set
Actual Time 6:48 AM CST 5:17 PM CST
Civil Twilight 6:21 AM CST 5:43 PM CST
Nautical Twilight 5:51 AM CST 6:14 PM CST
Astronomical Twilight 5:21 AM CST 6:44 PM CST
Moon 4:29 PM CST (11/9) 5:45 AM CST (11/9)
Length of Visible Light 11h 22m
Length of Day
10h 28m
Waxing Gibbous, 99% of the Moon is Illuminated
Nov 9
Waxing Gibbous
Nov 10
Full
Nov 18
Last Quarter
Nov 25
New
Dec 2
First Quarter

Hourly Weather History & Observations

Time (CST) Temp. Windchill Dew Point Humidity Pressure Visibility Wind Dir Wind Speed Gust Speed Precip Events Conditions
12:15 AM 50.0 °F - 42.8 °F 76% 30.02 in 10.0 mi West 16.1 mph 20.7 mph N/A   Overcast
12:35 AM 50.0 °F - 41.0 °F 71% 30.03 in 10.0 mi West 16.1 mph 20.7 mph N/A   Overcast
12:55 AM 50.0 °F - 41.0 °F 71% 30.03 in 10.0 mi West 17.3 mph 23.0 mph N/A   Mostly Cloudy
1:15 AM 50.0 °F - 42.8 °F 76% 30.04 in 10.0 mi WNW 15.0 mph - N/A   Mostly Cloudy
1:35 AM 48.2 °F - 42.8 °F 82% 30.05 in 10.0 mi WNW 16.1 mph 24.2 mph N/A   Overcast
1:55 AM 48.2 °F - 41.0 °F 76% 30.05 in 10.0 mi West 15.0 mph - N/A   Overcast
2:15 AM 46.4 °F 39.5 °F 41.0 °F 81% 30.06 in 10.0 mi WNW 17.3 mph 21.9 mph N/A   Overcast
2:35 AM 46.4 °F 39.8 °F 41.0 °F 81% 30.08 in 10.0 mi WNW 16.1 mph 23.0 mph N/A   Overcast
2:55 AM 46.4 °F 39.8 °F 41.0 °F 81% 30.09 in 10.0 mi West 16.1 mph 24.2 mph N/A   Overcast
3:15 AM 46.4 °F 39.5 °F 39.2 °F 76% 30.10 in 10.0 mi WNW 17.3 mph 25.3 mph N/A   Overcast
3:35 AM 44.6 °F 36.1 °F 37.4 °F 76% 30.11 in 10.0 mi NW 21.9 mph 27.6 mph N/A   Overcast
3:55 AM 44.6 °F 36.9 °F 37.4 °F 76% 30.12 in 10.0 mi NW 18.4 mph 23.0 mph N/A   Overcast
4:15 AM 44.6 °F 37.8 °F 37.4 °F 76% 30.13 in 10.0 mi NW 15.0 mph 19.6 mph N/A   Overcast
4:35 AM 44.6 °F 39.2 °F 37.4 °F 76% 30.14 in 10.0 mi WNW 10.4 mph 21.9 mph N/A   Overcast
4:55 AM 42.8 °F 35.1 °F 35.6 °F 76% 30.15 in 10.0 mi WNW 16.1 mph 20.7 mph N/A   Overcast
5:15 AM 42.8 °F 36.6 °F 35.6 °F 76% 30.17 in 10.0 mi NW 11.5 mph 18.4 mph N/A   Overcast
5:35 AM 42.8 °F 38.0 °F 35.6 °F 76% 30.18 in 10.0 mi NW 8.1 mph - N/A   Overcast
5:55 AM 42.8 °F 35.8 °F 35.6 °F 76% 30.18 in 10.0 mi NW 13.8 mph 20.7 mph N/A   Overcast
6:15 AM 42.8 °F 36.6 °F 35.6 °F 76% 30.19 in 10.0 mi NNW 11.5 mph 20.7 mph N/A   Overcast
6:35 AM 42.8 °F 37.0 °F 35.6 °F 76% 30.20 in 10.0 mi NNW 10.4 mph 19.6 mph N/A   Overcast
6:55 AM 44.6 °F 38.4 °F 35.6 °F 71% 30.22 in 10.0 mi NNW 12.7 mph 19.6 mph N/A   Mostly Cloudy
7:15 AM 44.6 °F 38.4 °F 35.6 °F 71% 30.23 in 10.0 mi NW 12.7 mph 18.4 mph N/A   Mostly Cloudy
7:35 AM 44.6 °F 39.2 °F 35.6 °F 71% 30.24 in 10.0 mi NNW 10.4 mph 17.3 mph N/A   Overcast
7:55 AM 44.6 °F 38.8 °F 35.6 °F 71% 30.25 in 10.0 mi NW 11.5 mph - N/A   Overcast
8:35 AM 44.6 °F 38.4 °F 35.6 °F 71% 30.28 in 10.0 mi NNW 12.7 mph 18.4 mph N/A   Overcast
8:55 AM 46.4 °F 40.4 °F 35.6 °F 66% 30.29 in 10.0 mi NNW 13.8 mph 19.6 mph N/A   Overcast
9:15 AM 46.4 °F 41.5 °F 35.6 °F 66% 30.29 in 10.0 mi NNW 10.4 mph 18.4 mph N/A   Scattered Clouds
9:35 AM 48.2 °F - 35.6 °F 62% 30.30 in 10.0 mi North 6.9 mph - N/A   Clear
9:55 AM 50.0 °F - 37.4 °F 62% 30.30 in 10.0 mi NNW 10.4 mph 17.3 mph N/A   Clear
10:15 AM 50.0 °F - 35.6 °F 58% 30.30 in 10.0 mi North 10.4 mph - N/A   Clear
10:35 AM 51.8 °F - 35.6 °F 54% 30.30 in 10.0 mi NNW 12.7 mph - N/A   Clear
10:55 AM 51.8 °F - 33.8 °F 50% 30.31 in 10.0 mi NNW 15.0 mph 21.9 mph N/A   Clear
11:15 AM 53.6 °F - 35.6 °F 51% 30.31 in 10.0 mi NNW 12.7 mph 19.6 mph N/A   Clear
11:35 AM 53.6 °F - 33.8 °F 47% 30.31 in 10.0 mi NNW 12.7 mph 19.6 mph N/A   Clear
11:55 AM 55.4 °F - 33.8 °F 44% 30.30 in 10.0 mi NNW 11.5 mph 18.4 mph N/A   Clear
12:15 PM 55.4 °F - 32.0 °F 41% 30.30 in 10.0 mi NW 11.5 mph 16.1 mph N/A   Clear
12:35 PM 55.4 °F - 32.0 °F 41% 30.29 in 10.0 mi NNW 16.1 mph 20.7 mph N/A   Clear
12:55 PM 55.4 °F - 32.0 °F 41% 30.29 in 10.0 mi NNW 11.5 mph 20.7 mph N/A   Clear
1:15 PM 57.2 °F - 32.0 °F 38% 30.28 in 10.0 mi NNW 15.0 mph 23.0 mph N/A   Clear
1:35 PM 57.2 °F - 32.0 °F 38% 30.29 in 10.0 mi NNW 11.5 mph 17.3 mph N/A   Clear
1:55 PM 57.2 °F - 32.0 °F 38% 30.29 in 10.0 mi NW 9.2 mph 16.1 mph N/A   Clear
2:15 PM 59.0 °F - 32.0 °F 36% 30.29 in 10.0 mi NNW 12.7 mph 19.6 mph N/A   Clear
2:35 PM 59.0 °F - 32.0 °F 36% 30.29 in 10.0 mi NW 12.7 mph 17.3 mph N/A   Clear
2:55 PM 59.0 °F - 32.0 °F 36% 30.29 in 10.0 mi NNW 11.5 mph 20.7 mph N/A   Clear
3:15 PM 59.0 °F - 30.2 °F 34% 30.29 in 10.0 mi NW 13.8 mph 19.6 mph N/A   Clear
3:35 PM 59.0 °F - 30.2 °F 34% 30.29 in 10.0 mi NNW 12.7 mph 17.3 mph N/A   Clear
3:55 PM 59.0 °F - 30.2 °F 34% 30.29 in 10.0 mi NNW 13.8 mph 18.4 mph N/A   Clear
4:15 PM 57.2 °F - 30.2 °F 36% 30.29 in 10.0 mi NNW 9.2 mph 16.1 mph N/A   Clear
4:35 PM 57.2 °F - 30.2 °F 36% 30.29 in 10.0 mi NNW 8.1 mph - N/A   Clear
4:55 PM 55.4 °F - 30.2 °F 38% 30.30 in 10.0 mi NNW 6.9 mph - N/A   Clear
5:15 PM 53.6 °F - 30.2 °F 41% 30.30 in 10.0 mi NNW 6.9 mph - N/A   Clear
5:35 PM 51.8 °F - 32.0 °F 47% 30.30 in 10.0 mi NW 4.6 mph - N/A   Clear
5:55 PM 50.0 °F - 32.0 °F 50% 30.31 in 10.0 mi Calm Calm - N/A   Clear
6:35 PM 46.4 °F - 32.0 °F 57% 30.32 in 10.0 mi Calm Calm - N/A   Clear
6:55 PM 46.4 °F - 32.0 °F 57% 30.32 in 10.0 mi Calm Calm - N/A   Clear
7:15 PM 44.6 °F - 33.8 °F 66% 30.33 in 10.0 mi Calm Calm - N/A   Clear
7:35 PM 44.6 °F - 32.0 °F 61% 30.33 in 10.0 mi Calm Calm - N/A   Clear
7:55 PM 44.6 °F - 33.8 °F 66% 30.33 in 10.0 mi Calm Calm - N/A   Clear
8:15 PM 42.8 °F - 33.8 °F 70% 30.34 in 10.0 mi Calm Calm - N/A   Clear
8:35 PM 41.0 °F - 35.6 °F 81% 30.35 in 10.0 mi Calm Calm - N/A   Clear
8:55 PM 39.2 °F - 35.6 °F 87% 30.35 in 10.0 mi Calm Calm - N/A   Clear
9:15 PM 41.0 °F - 35.6 °F 81% 30.36 in 10.0 mi Calm Calm - N/A   Clear
9:35 PM 39.2 °F - 35.6 °F 87% 30.36 in 10.0 mi Calm Calm - N/A   Clear
9:55 PM 37.4 °F - 35.6 °F 93% 30.36 in 10.0 mi Calm Calm - N/A   Clear
10:15 PM 37.4 °F - 35.6 °F 93% 30.37 in 10.0 mi Calm Calm - N/A   Clear
10:35 PM 37.4 °F - 35.6 °F 93% 30.37 in 10.0 mi Calm Calm - N/A   Clear
10:55 PM 37.4 °F - 33.8 °F 87% 30.37 in 10.0 mi Calm Calm - N/A   Clear
11:15 PM 37.4 °F - 33.8 °F 87% 30.37 in 10.0 mi Calm Calm - N/A   Clear
11:35 PM 37.4 °F - 33.8 °F 87% 30.37 in 10.0 mi Calm Calm - N/A   Clear
11:55 PM 37.4 °F - 33.8 °F 87% 30.37 in 10.0 mi Calm Calm - N/A   Clear